DW0108 Weather Reports


Display with metric or nautical units.
time (UTC)temp
F
wind
direction
speed
MPH
gust
MPH
rain 1hr
in
rain 24hr
in
rain mn
in
humidity
%
barometer
mb
20260504171841 77 165 5.0 9.0 0.00 0.00 0.00 62 1011.5
20260504150810 70 166 6.0 10.0 0.00 0.00 0.00 68 1012.8
20260504140832 68 162 6.0 10.0 0.00 0.00 0.00 74 1012.8
20260504080821 62 140 3.0 5.0 0.00 0.00 0.00 74 1014.2
20260504045821 64 141 0.0 1.0 0.00 0.00 0.00 68 1015.9
20260504044841 65 146 1.0 3.0 0.00 0.00 0.00 66 1015.9
20260504043848 66 154 1.0 4.0 0.00 0.00 0.00 65 1015.9
20260504041823 66 147 1.0 4.0 0.00 0.00 0.00 63 1016.2
20260504040813 67 150 1.0 5.0 0.00 0.00 0.00 61 1016.2
20260504035849 67 148 1.0 3.0 0.00 0.00 0.00 61 1016.2
20260504034821 68 146 1.0 5.0 0.00 0.00 0.00 60 1016.2
20260504033821 68 150 1.0 6.0 0.00 0.00 0.00 59 1016.2
20260504032823 69 157 2.0 4.0 0.00 0.00 0.00 58 1015.9
20260504031836 69 149 2.0 4.0 0.00 0.00 0.00 57 1016.2
20260504030819 70 163 3.0 7.0 0.00 0.00 0.00 55 1016.2
20260504025823 70 156 2.0 6.0 0.00 0.00 0.00 53 1015.9
20260504023826 70 147 2.0 5.0 0.00 0.00 0.00 52 1015.9
20260504022826 71 147 2.0 5.0 0.00 0.00 0.00 50 1015.9
20260504021837 71 145 2.0 3.0 0.00 0.00 0.00 49 1015.9
20260504020822 72 156 3.0 5.0 0.00 0.00 0.00 48 1015.9
20260504014806 73 150 2.0 4.0 0.00 0.00 0.00 45 1015.9
20260504012848 73 145 2.0 4.0 0.00 0.00 0.00 43 1015.9
20260504011827 74 155 2.0 5.0 0.00 0.00 0.00 43 1015.2
20260504010805 75 159 4.0 7.0 0.00 0.00 0.00 42 1015.5
20260504005828 75 155 3.0 6.0 0.00 0.00 0.00 42 1015.5
20260504004820 76 164 2.0 6.0 0.00 0.00 0.00 41 1015.5
20260504003820 76 156 4.0 8.0 0.00 0.00 0.00 40 1015.5
20260504001849 78 165 2.0 8.0 0.00 0.00 0.00 38 1015.5
20260504000828 78 160 3.0 7.0 0.00 0.00 0.00 37 1015.5
20260503235808 79 167 3.0 8.0 0.00 0.00 0.00 35 1015.2
20260503234821 79 191 2.0 8.0 0.00 0.00 0.00 36 1015.5
20260503233817 79 153 3.0 6.0 0.00 0.00 0.00 36 1015.5
20260503232809 79 159 3.0 8.0 0.00 0.00 0.00 35 1015.5
20260503231819 80 168 4.0 10.0 0.00 0.00 0.00 36 1015.9
20260503225844 80 181 3.0 5.0 0.00 0.00 0.00 34 1016.2
20260503224806 81 162 4.0 7.0 0.00 0.00 0.00 33 1016.2
20260503223805 81 153 3.0 8.0 0.00 0.00 0.00 34 1016.2
20260503222831 81 156 2.0 6.0 0.00 0.00 0.00 33 1016.2
20260503221824 80 155 3.0 7.0 0.00 0.00 0.00 35 1016.2
20260503220808 80 157 3.0 8.0 0.00 0.00 0.00 35 1016.2
20260503215814 81 167 4.0 9.0 0.00 0.00 0.00 34 1016.5
20260503214826 81 157 3.0 6.0 0.00 0.00 0.00 32 1016.5
20260503213836 81 167 3.0 7.0 0.00 0.00 0.00 32 1016.9
20260503212826 81 171 3.0 9.0 0.00 0.00 0.00 33 1016.9
20260503211840 82 190 3.0 8.0 0.00 0.00 0.00 33 1017.2
20260503205813 81 176 2.0 5.0 0.00 0.00 0.00 33 1017.2
20260503204806 82 187 2.0 7.0 0.00 0.00 0.00 33 1017.9
20260503203832 82 155 4.0 7.0 0.00 0.00 0.00 34 1017.9
20260503202808 81 156 3.0 8.0 0.00 0.00 0.00 33 1017.9
20260503201824 81 200 2.0 6.0 0.00 0.00 0.00 32 1018.2
20260503200821 81 196 2.0 5.0 0.00 0.00 0.00 33 1018.2
20260503195840 82 184 2.0 7.0 0.00 0.00 0.00 33 1018.6
20260503194840 81 155 4.0 6.0 0.00 0.00 0.00 34 1018.6
20260503193821 81 209 3.0 8.0 0.00 0.00 0.00 33 1018.6
20260503192827 81 163 2.0 7.0 0.00 0.00 0.00 33 1018.9
20260503191825 81 222 2.0 5.0 0.00 0.00 0.00 34 1018.9
20260503190811 81 175 3.0 8.0 0.00 0.00 0.00 34 1019.6
20260503185836 82 176 2.0 6.0 0.00 0.00 0.00 34 1019.6
20260503184836 81 239 1.0 2.0 0.00 0.00 0.00 37 1019.6
20260503182824 80 242 2.0 4.0 0.00 0.00 0.00 37 1019.9
20260503181834 80 165 4.0 8.0 0.00 0.00 0.00 36 1019.9
20260503180835 80 248 2.0 4.0 0.00 0.00 0.00 41 1020.3
20260503175835 79 174 1.0 4.0 0.00 0.00 0.00 41 1020.3
20260503173834 79 168 2.0 4.0 0.00 0.00 0.00 42 1020.6